FALCON 9 DEB (48415 NORAD) Tracking and Keplerian Element Data

This shows tracking and keplerian element data for the satellite.

Feedback or suggestion? Click here.




ElementValue
Catalog48415
NameFALCON 9 DEB
Epoch Orbit491
Epoch Day155.21789848
Epoch Year2021
RAAN245.1686
Inclination53.0329
Eccentricity0.0008069
Argument of Perigee296.8466
Mean Anonmoly63.1759
Mean Motion16.48425053
Decay Rate0.10486946
L11 48415U 21038BQ 21155.21789848 .10486946 12657-4 14796-3 0 9990
L22 48415 53.0329 245.1686 0008069 296.8466 63.1759 16.48425053 4915

Live tracking and technical data element details for FALCON 9 DEB (NORAD 48415). FALCON 9 DEB can be tracked NOW for your location showing map with azimuth and elevation plus other details from your city location.

Track the satellite on the map from your city or location and see movement details for azimuth, elevation, latitude, longitude, range, height, and movement on the map or in text.







IsCatalogInMostPopularTable: catalog: 48415, numindb: 25
Update: records affected: 1



GetName: 48415 FALCON 9 DEB

Hit Count: updated at: Sat, 31 Jul 2021 15:46:08 GMT